TimeCST,TemperatureF,Dew PointF,Humidity,Sea Level PressureIn,VisibilityMPH,Wind Direction,Wind SpeedMPH,Gust SpeedMPH,PrecipitationIn,Events,Conditions,WindDirDegrees,DateUTC
12:09 AM,33.8,33.8,100,29.60,0.2,SE,5.8,-,N/A,Fog,Fog,140,2013-01-29 06:09:00
12:29 AM,34.3,34.3,100,29.60,0.2,SE,8.1,-,N/A,Thunderstorm,Overcast,130,2013-01-29 06:29:00
12:50 AM,35.6,35.6,100,29.57,0.2,SE,12.7,-,0.05,Rain,Light Rain,140,2013-01-29 06:50:00
1:10 AM,36.5,36.5,100,29.56,0.5,SE,6.9,-,N/A,Rain,Light Rain,140,2013-01-29 07:10:00
1:29 AM,38.3,38.3,100,29.55,2.0,SSE,5.8,9.2,0.02,Rain,Light Rain,150,2013-01-29 07:29:00
1:49 AM,40.3,40.3,100,29.53,3.0,South,12.7,16.1,0.02,Thunderstorm,Overcast,170,2013-01-29 07:49:00
2:09 AM,41.4,41.4,100,29.52,1.0,South,10.4,17.3,N/A,Thunderstorm,Overcast,170,2013-01-29 08:09:00
2:29 AM,41.0,41.0,100,29.52,0.5,South,9.2,-,N/A,Fog,Fog,170,2013-01-29 08:29:00
2:49 AM,41.4,41.4,100,29.51,1.0,South,11.5,-,N/A,,Overcast,170,2013-01-29 08:49:00
3:09 AM,40.5,40.5,100,29.51,0.2,South,6.9,-,N/A,Fog,Fog,180,2013-01-29 09:09:00
3:30 AM,41.4,41.4,100,29.50,0.2,South,8.1,-,N/A,Fog,Fog,190,2013-01-29 09:30:00
3:49 AM,42.8,42.8,100,29.50,0.2,South,10.4,-,N/A,Fog,Fog,180,2013-01-29 09:49:00
4:09 AM,43.0,43.0,100,29.50,0.2,SSW,10.4,-,0.01,Rain,Light Rain,200,2013-01-29 10:09:00
4:30 AM,44.1,44.1,100,29.50,0.2,SW,4.6,-,0.01,Fog,Fog,230,2013-01-29 10:30:00
4:49 AM,44.4,44.4,100,29.50,0.2,SW,8.1,-,0.01,Fog,Fog,220,2013-01-29 10:49:00
5:09 AM,43.0,43.2,100,29.50,0.2,WSW,5.8,-,N/A,Fog,Fog,240,2013-01-29 11:09:00
5:30 AM,39.7,39.7,100,29.50,0.2,WNW,9.2,-,N/A,Fog,Fog,290,2013-01-29 11:30:00
5:50 AM,38.3,38.3,100,29.49,0.5,West,5.8,-,N/A,Fog,Fog,280,2013-01-29 11:50:00
6:10 AM,38.3,38.3,100,29.51,0.8,West,10.4,-,N/A,,Overcast,280,2013-01-29 12:10:00
6:30 AM,38.3,38.3,100,29.52,1.0,WNW,10.4,-,N/A,,Overcast,290,2013-01-29 12:30:00
6:49 AM,36.9,36.9,100,29.53,4.0,NW,11.5,-,N/A,,Overcast,310,2013-01-29 12:49:00
7:09 AM,35.8,35.8,100,29.54,4.0,WNW,9.2,-,N/A,,Overcast,300,2013-01-29 13:09:00
7:30 AM,35.1,35.1,100,29.53,4.0,NW,10.4,-,N/A,,Overcast,320,2013-01-29 13:30:00
7:50 AM,34.3,34.3,100,29.55,5.0,NW,12.7,-,N/A,,Overcast,310,2013-01-29 13:50:00
8:09 AM,34.0,34.0,100,29.53,5.0,NW,9.2,-,N/A,,Overcast,320,2013-01-29 14:09:00
8:30 AM,33.8,33.8,100,29.52,5.0,NNW,6.9,-,N/A,,Overcast,330,2013-01-29 14:30:00
8:50 AM,33.8,33.8,100,29.54,5.0,NW,9.2,-,N/A,,Overcast,320,2013-01-29 14:50:00
9:09 AM,33.8,33.8,100,29.54,5.0,NNW,11.5,-,N/A,,Overcast,330,2013-01-29 15:09:00
9:30 AM,33.1,33.3,100,29.57,7.0,WNW,8.1,-,N/A,,Overcast,300,2013-01-29 15:30:00
9:50 AM,33.3,33.3,100,29.59,7.0,WNW,9.2,-,N/A,,Overcast,290,2013-01-29 15:50:00
10:10 AM,33.4,33.4,100,29.58,7.0,WNW,16.1,-,N/A,,Overcast,300,2013-01-29 16:10:00
10:30 AM,32.9,32.9,100,29.59,10.0,NW,16.1,-,N/A,,Overcast,310,2013-01-29 16:30:00
10:50 AM,32.5,32.7,100,29.61,10.0,NW,15.0,-,N/A,,Overcast,310,2013-01-29 16:50:00
11:10 AM,32.4,32.4,100,29.63,7.0,WNW,11.5,16.1,N/A,,Overcast,300,2013-01-29 17:10:00
11:30 AM,32.4,32.4,100,29.62,7.0,NW,10.4,-,N/A,,Overcast,320,2013-01-29 17:30:00
11:50 AM,32.4,32.2,99,29.61,5.0,NW,15.0,18.4,N/A,,Overcast,310,2013-01-29 17:50:00
12:10 PM,32.0,32.0,100,29.60,4.0,NNW,11.5,16.1,N/A,,Overcast,330,2013-01-29 18:10:00
12:30 PM,32.4,32.0,99,29.61,5.0,NW,10.4,-,N/A,,Overcast,320,2013-01-29 18:30:00
12:49 PM,32.5,31.6,96,29.60,7.0,NNW,10.4,-,N/A,,Overcast,330,2013-01-29 18:49:00
1:10 PM,32.9,31.5,94,29.57,10.0,North,12.7,-,N/A,,Overcast,350,2013-01-29 19:10:00
1:30 PM,32.9,31.1,93,29.56,7.0,NNW,13.8,-,N/A,,Overcast,340,2013-01-29 19:30:00
1:50 PM,32.9,31.1,93,29.57,7.0,North,11.5,-,N/A,,Overcast,350,2013-01-29 19:50:00
2:09 PM,32.5,31.1,94,29.57,7.0,North,10.4,-,N/A,,Overcast,350,2013-01-29 20:09:00
2:30 PM,32.5,31.1,94,29.55,7.0,North,13.8,18.4,N/A,,Overcast,350,2013-01-29 20:30:00
2:50 PM,32.9,31.1,93,29.57,7.0,NNW,12.7,-,N/A,,Overcast,340,2013-01-29 20:50:00
3:09 PM,32.5,31.1,94,29.57,7.0,North,12.7,-,N/A,,Overcast,360,2013-01-29 21:09:00
3:30 PM,32.4,30.9,94,29.57,7.0,North,13.8,19.6,N/A,,Overcast,360,2013-01-29 21:30:00
3:49 PM,32.2,30.9,95,29.57,7.0,North,12.7,20.7,N/A,,Overcast,360,2013-01-29 21:49:00
4:10 PM,32.0,30.9,96,29.59,7.0,North,11.5,-,N/A,,Overcast,350,2013-01-29 22:10:00
4:30 PM,32.0,30.7,95,29.57,10.0,North,15.0,-,N/A,,Overcast,360,2013-01-29 22:30:00
4:49 PM,32.0,30.6,94,29.57,10.0,North,11.5,-,N/A,,Overcast,360,2013-01-29 22:49:00
5:10 PM,32.0,30.2,93,29.57,10.0,North,12.7,18.4,N/A,,Overcast,360,2013-01-29 23:10:00
5:30 PM,32.0,30.0,92,29.60,10.0,North,11.5,-,N/A,,Overcast,360,2013-01-29 23:30:00
5:49 PM,32.0,30.0,92,29.59,10.0,North,13.8,-,N/A,,Overcast,10,2013-01-29 23:49:00
6:10 PM,32.0,30.2,93,29.61,10.0,North,13.8,19.6,N/A,,Overcast,360,2013-01-30 00:10:00
6:30 PM,32.0,30.0,92,29.59,10.0,North,13.8,18.4,N/A,,Overcast,360,2013-01-30 00:30:00
6:49 PM,32.0,29.8,92,29.55,10.0,North,12.7,21.9,N/A,,Overcast,360,2013-01-30 00:49:00
7:09 PM,32.0,30.0,92,29.58,10.0,North,12.7,17.3,N/A,,Overcast,360,2013-01-30 01:09:00
7:30 PM,32.0,30.0,92,29.57,10.0,North,16.1,21.9,N/A,,Overcast,360,2013-01-30 01:30:00
7:49 PM,32.0,30.0,92,29.61,10.0,North,12.7,20.7,N/A,,Overcast,350,2013-01-30 01:49:00
8:10 PM,32.0,30.0,92,29.61,10.0,North,12.7,20.7,N/A,,Overcast,360,2013-01-30 02:10:00
8:30 PM,32.0,29.8,92,29.59,10.0,North,12.7,19.6,N/A,,Overcast,360,2013-01-30 02:30:00
8:49 PM,32.0,30.0,92,29.53,10.0,North,19.6,23.0,N/A,,Overcast,360,2013-01-30 02:49:00
9:10 PM,32.0,30.2,93,29.58,10.0,North,12.7,20.7,N/A,,Overcast,360,2013-01-30 03:10:00
9:30 PM,32.0,30.0,92,29.60,10.0,North,13.8,20.7,N/A,,Overcast,360,2013-01-30 03:30:00
9:49 PM,32.0,29.7,91,29.60,10.0,North,13.8,21.9,N/A,,Overcast,360,2013-01-30 03:49:00
10:10 PM,32.0,29.3,90,29.60,10.0,North,19.6,23.0,N/A,,Overcast,360,2013-01-30 04:10:00
10:30 PM,32.0,29.1,89,29.62,10.0,North,17.3,28.8,N/A,,Overcast,350,2013-01-30 04:30:00
10:50 PM,31.6,28.9,90,29.59,10.0,North,13.8,23.0,N/A,,Overcast,360,2013-01-30 04:50:00
11:09 PM,30.7,28.4,91,29.57,10.0,North,18.4,25.3,N/A,,Overcast,10,2013-01-30 05:09:00
11:29 PM,30.2,27.9,91,29.63,7.0,North,13.8,20.7,N/A,,Overcast,350,2013-01-30 05:29:00
11:49 PM,29.7,27.3,91,29.60,10.0,North,15.0,-,N/A,,Overcast,360,2013-01-30 05:49:00